Location: Appletree Creek
(38.7363°N, 122.6833°W)
Time: 17:39:37
(UTC+00:00)

IDEFIX/ARIANE 42P - Pass Details

Date: 18 September 2020
Orbit: 786 x 802 km, 98.4° (Epoch: 19 October)

Event Time Altitude Azimuth Distance (km) Brightness Sun altitude
Rises 12:20:02 0° 359° (N) 3,320 6.0 -19.1°
Reaches altitude 10° 12:22:44 10° 346° (NNW) 2,386 5.1 -18.6°
Maximum altitude 12:26:55 25° 294° (WNW) 1,589 3.7 -17.8°
Enters shadow 12:27:17 24° 287° (WNW) 1,596 3.7 -17.7°
